TimeEST,TemperatureF,Dew PointF,Humidity,Sea Level PressureIn,VisibilityMPH,Wind Direction,Wind SpeedMPH,Gust SpeedMPH,PrecipitationIn,Events,Conditions,WindDirDegrees,DateUTC
12:15 AM,37.4,33.8,87,30.19,10.0,North,11.5,-,N/A,,Overcast,10,2012-11-28 05:15:00
12:29 AM,37.4,33.8,87,30.20,10.0,North,9.2,-,N/A,,Overcast,10,2012-11-28 05:29:00
12:53 AM,37.0,33.1,86,30.19,10.0,NNE,10.4,-,N/A,,Overcast,20,2012-11-28 05:53:00
1:04 AM,37.4,33.8,87,30.19,10.0,NNE,12.7,-,N/A,,Overcast,20,2012-11-28 06:04:00
1:34 AM,37.4,33.8,87,30.18,10.0,North,9.2,-,N/A,,Overcast,10,2012-11-28 06:34:00
1:53 AM,36.0,32.0,86,30.18,10.0,NNE,10.4,-,N/A,,Overcast,20,2012-11-28 06:53:00
2:53 AM,36.0,32.0,86,30.19,10.0,North,5.8,-,N/A,,Mostly Cloudy,360,2012-11-28 07:53:00
3:53 AM,37.0,32.0,82,30.19,10.0,North,6.9,-,N/A,,Overcast,350,2012-11-28 08:53:00
4:53 AM,36.0,30.9,82,30.19,10.0,NNW,6.9,-,N/A,,Overcast,340,2012-11-28 09:53:00
5:53 AM,36.0,30.0,79,30.21,10.0,NNW,4.6,-,N/A,,Mostly Cloudy,340,2012-11-28 10:53:00
6:53 AM,34.0,30.0,85,30.21,10.0,North,3.5,-,N/A,,Partly Cloudy,360,2012-11-28 11:53:00
7:53 AM,36.0,30.0,79,30.21,10.0,NNW,5.8,-,N/A,,Clear,340,2012-11-28 12:53:00
8:53 AM,37.9,30.0,73,30.22,10.0,North,8.1,-,N/A,,Clear,350,2012-11-28 13:53:00
9:53 AM,39.0,30.0,70,30.22,10.0,NNE,9.2,-,N/A,,Clear,20,2012-11-28 14:53:00
10:53 AM,39.9,28.9,65,30.22,10.0,Variable,4.6,-,N/A,,Clear,0,2012-11-28 15:53:00
11:53 AM,39.9,25.0,55,30.19,10.0,Variable,5.8,-,N/A,,Clear,0,2012-11-28 16:53:00
12:53 PM,41.0,23.0,49,30.17,10.0,NW,6.9,-,N/A,,Overcast,310,2012-11-28 17:53:00
1:53 PM,41.0,23.0,49,30.17,10.0,NNW,9.2,-,N/A,,Scattered Clouds,330,2012-11-28 18:53:00
2:53 PM,41.0,23.0,49,30.17,10.0,NW,8.1,-,N/A,,Mostly Cloudy,310,2012-11-28 19:53:00
3:53 PM,39.9,23.0,51,30.17,10.0,NW,10.4,18.4,N/A,,Overcast,320,2012-11-28 20:53:00
4:53 PM,37.0,21.9,54,30.20,10.0,NW,6.9,18.4,N/A,,Clear,320,2012-11-28 21:53:00
5:53 PM,36.0,21.0,55,30.23,10.0,NW,10.4,-,N/A,,Partly Cloudy,320,2012-11-28 22:53:00
6:53 PM,35.1,21.0,57,30.24,10.0,NW,5.8,-,N/A,,Clear,320,2012-11-28 23:53:00
7:53 PM,33.1,21.9,64,30.25,10.0,WNW,5.8,-,N/A,,Clear,300,2012-11-29 00:53:00
8:53 PM,33.1,21.9,64,30.26,10.0,Calm,Calm,-,N/A,,Clear,0,2012-11-29 01:53:00
9:53 PM,32.0,23.0,69,30.27,10.0,West,3.5,-,N/A,,Clear,280,2012-11-29 02:53:00
10:53 PM,30.9,23.0,72,30.27,10.0,West,5.8,-,N/A,,Clear,260,2012-11-29 03:53:00
11:53 PM,33.1,23.0,66,30.28,10.0,West,5.8,-,N/A,,Clear,270,2012-11-29 04:53:00